• In Deutschland
  • Länderverzeichnis
  • Für 7 Tage
  • Wassertemperatur
  • Satellitenkarten
  • Wetterkarte
  • Widgets
  • user-avatar
    Anmelden

    Stündliche Wetter Rösrath

    Heute, 16 Dezember, Samstag

    Zeit Temperatur Niederschläge Wind Luftdruck Luftfeuchtigkeit
    00:00 +1°C° 0 mm 0 m/S 744 mmHg 94%
    01:00 +2°C° 0 mm 1 m/S 744 mmHg 94%
    02:00 +2°C° 0 mm 1 m/S 745 mmHg 95%
    03:00 +2°C° 0 mm 1 m/S 745 mmHg 96%
    04:00 +1°C° 0 mm 2 m/S 745 mmHg 96%
    05:00 +1°C° 0 mm 2 m/S 746 mmHg 96%
    06:00 +2°C° 0 mm 2 m/S 747 mmHg 96%
    07:00 +2°C° 0,1 mm 2 m/S 747 mmHg 95%
    08:00 +1°C° 0,1 mm 3 m/S 748 mmHg 94%
    09:00 +1°C° 0,1 mm 3 m/S 749 mmHg 92%
    10:00 +2°C° 0 mm 3 m/S 749 mmHg 89%
    11:00 +2°C° 0 mm 3 m/S 750 mmHg 85%
    12:00 +3°C° 0 mm 3 m/S 750 mmHg 82%
    13:00 +3°C° 0,1 mm 3 m/S 750 mmHg 82%
    14:00 +3°C° 0,1 mm 3 m/S 751 mmHg 83%
    15:00 +2°C° 0,1 mm 3 m/S 751 mmHg 84%
    16:00 +2°C° 0,1 mm 3 m/S 751 mmHg 86%
    17:00 +1°C° 0,1 mm 3 m/S 752 mmHg 88%
    18:00 +1°C° 0,1 mm 3 m/S 753 mmHg 90%
    19:00 +1°C° 0,1 mm 3 m/S 753 mmHg 90%
    20:00 +1°C° 0,1 mm 3 m/S 753 mmHg 91%
    21:00 +1°C° 0,1 mm 3 m/S 754 mmHg 91%
    22:00 +1°C° 0,1 mm 3 m/S 754 mmHg 92%
    23:00 +1°C° 0,1 mm 3 m/S 755 mmHg 92%

    Morgen, 17 Dezember, Sonntag

    Zeit Temperatur Niederschläge Wind Luftdruck Luftfeuchtigkeit
    00:00 +1°C° 0,1 mm 3 m/S 755 mmHg 92%
    01:00 +1°C° 0,2 mm 3 m/S 755 mmHg 92%
    02:00 +1°C° 0,2 mm 3 m/S 755 mmHg 92%
    03:00 +1°C° 0,2 mm 3 m/S 756 mmHg 92%
    04:00 +1°C° 0,1 mm 3 m/S 756 mmHg 92%
    05:00 +1°C° 0,1 mm 3 m/S 756 mmHg 93%
    06:00 0°C° 0,1 mm 3 m/S 757 mmHg 94%
    07:00 0°C° 0 mm 3 m/S 757 mmHg 93%
    08:00 +1°C° 0 mm 3 m/S 758 mmHg 93%
    09:00 +1°C° 0 mm 3 m/S 759 mmHg 92%
    10:00 +1°C° 0 mm 3 m/S 759 mmHg 90%
    11:00 +2°C° 0 mm 3 m/S 759 mmHg 88%
    12:00 +4°C° 0 mm 2 m/S 759 mmHg 86%
    13:00 +3°C° 0 mm 2 m/S 759 mmHg 88%
    14:00 +3°C° 0 mm 2 m/S 760 mmHg 89%
    15:00 +3°C° 0 mm 2 m/S 760 mmHg 91%
    16:00 +2°C° 0 mm 2 m/S 760 mmHg 92%
    17:00 +2°C° 0 mm 2 m/S 760 mmHg 93%
    18:00 +1°C° 0 mm 3 m/S 760 mmHg 93%
    19:00 +1°C° 0 mm 3 m/S 760 mmHg 91%
    20:00 +1°C° 0 mm 3 m/S 760 mmHg 88%
    21:00 0°C° 0 mm 4 m/S 760 mmHg 85%
    22:00 0°C° 0,5 mm 4 m/S 759 mmHg 85%
    23:00 0°C° 0,5 mm 4 m/S 759 mmHg 85%

    übermorgen, 18 Dezember, Montag

    Zeit Temperatur Niederschläge Wind Luftdruck Luftfeuchtigkeit
    00:00 +1°C° 0,5 mm 5 m/S 758 mmHg 85%
    01:00 +1°C° 1,3 mm 5 m/S 758 mmHg 87%
    02:00 +1°C° 1,3 mm 5 m/S 757 mmHg 89%
    03:00 +1°C° 1,3 mm 5 m/S 756 mmHg 91%
    04:00 +3°C° 0,4 mm 4 m/S 756 mmHg 93%
    05:00 +3°C° 0,4 mm 4 m/S 756 mmHg 94%
    06:00 +4°C° 0,4 mm 4 m/S 756 mmHg 96%
    07:00 +3°C° 0,1 mm 3 m/S 757 mmHg 94%
    08:00 +3°C° 0,1 mm 3 m/S 758 mmHg 93%
    09:00 +3°C° 0,1 mm 3 m/S 758 mmHg 92%
    10:00 +3°C° 0 mm 3 m/S 759 mmHg 90%
    11:00 +4°C° 0 mm 3 m/S 759 mmHg 88%
    12:00 +4°C° 0 mm 3 m/S 759 mmHg 86%
    13:00 +4°C° 0,1 mm 3 m/S 760 mmHg 86%
    14:00 +5°C° 0,1 mm 2 m/S 760 mmHg 87%
    15:00 +4°C° 0,1 mm 2 m/S 761 mmHg 87%
    16:00 +4°C° 0 mm 2 m/S 762 mmHg 88%
    17:00 +3°C° 0 mm 2 m/S 762 mmHg 89%
    18:00 +4°C° 0 mm 1 m/S 763 mmHg 90%
    19:00 +3°C° 0 mm 1 m/S 764 mmHg 90%
    20:00 +3°C° 0 mm 1 m/S 764 mmHg 90%
    21:00 +3°C° 0 mm 1 m/S 765 mmHg 90%
    22:00 +2°C° 0 mm 1 m/S 765 mmHg 90%
    23:00 +2°C° 0 mm 1 m/S 766 mmHg 90%

    19 Dezember, Dienstag

    Zeit Temperatur Niederschläge Wind Luftdruck Luftfeuchtigkeit
    00:00 +2°C° 0 mm 1 m/S 766 mmHg 90%
    01:00 +2°C° 0 mm 1 m/S 766 mmHg 90%
    02:00 +2°C° 0 mm 1 m/S 766 mmHg 91%
    03:00 +1°C° 0 mm 1 m/S 767 mmHg 91%
    04:00 +1°C° 0 mm 1 m/S 767 mmHg 91%
    05:00 +1°C° 0 mm 1 m/S 767 mmHg 92%
    06:00 +1°C° 0 mm 1 m/S 767 mmHg 92%
    07:00 +2°C° 0 mm 1 m/S 768 mmHg 92%
    08:00 +2°C° 0 mm 1 m/S 768 mmHg 92%
    09:00 +3°C° 0 mm 1 m/S 768 mmHg 92%
    10:00 +4°C° 0 mm 1 m/S 768 mmHg 91%
    11:00 +5°C° 0 mm 1 m/S 769 mmHg 90%
    12:00 +5°C° 0 mm 2 m/S 769 mmHg 89%
    13:00 +5°C° 0 mm 1 m/S 768 mmHg 91%
    14:00 +5°C° 0 mm 1 m/S 768 mmHg 93%
    15:00 +5°C° 0 mm 1 m/S 768 mmHg 94%
    16:00 +4°C° 0 mm 1 m/S 768 mmHg 95%
    17:00 +4°C° 0 mm 1 m/S 769 mmHg 95%
    18:00 +3°C° 0 mm 2 m/S 769 mmHg 95%
    19:00 +2°C° 0 mm 2 m/S 769 mmHg 94%
    20:00 +2°C° 0 mm 2 m/S 769 mmHg 93%
    21:00 +2°C° 0 mm 2 m/S 769 mmHg 93%
    22:00 +2°C° 0 mm 2 m/S 769 mmHg 91%
    23:00 +2°C° 0 mm 2 m/S 769 mmHg 90%

    20 Dezember, Mittwoch

    Zeit Temperatur Niederschläge Wind Luftdruck Luftfeuchtigkeit
    00:00 +2°C° 0 mm 2 m/S 769 mmHg 89%
    01:00 +3°C° 0,1 mm 2 m/S 768 mmHg 90%
    02:00 +3°C° 0,1 mm 2 m/S 768 mmHg 90%
    03:00 +4°C° 0,1 mm 2 m/S 768 mmHg 91%
    04:00 +4°C° 0,1 mm 2 m/S 768 mmHg 92%
    05:00 +4°C° 0,1 mm 2 m/S 768 mmHg 94%
    06:00 +4°C° 0,1 mm 2 m/S 768 mmHg 96%
    07:00 +5°C° 0 mm 2 m/S 768 mmHg 96%
    08:00 +5°C° 0 mm 2 m/S 768 mmHg 97%
    09:00 +6°C° 0 mm 2 m/S 769 mmHg 97%
    10:00 +6°C° 0 mm 2 m/S 768 mmHg 97%
    11:00 +7°C° 0 mm 2 m/S 768 mmHg 97%
    12:00 +7°C° 0 mm 2 m/S 768 mmHg 97%
    13:00 +7°C° 0,1 mm 2 m/S 768 mmHg 97%
    14:00 +7°C° 0,1 mm 2 m/S 768 mmHg 97%
    15:00 +7°C° 0,1 mm 2 m/S 768 mmHg 97%
    16:00 +7°C° 0,1 mm 2 m/S 768 mmHg 97%
    17:00 +7°C° 0,1 mm 2 m/S 768 mmHg 97%
    18:00 +8°C° 0,1 mm 2 m/S 768 mmHg 97%
    19:00 +8°C° 0,1 mm 2 m/S 768 mmHg 97%
    20:00 +8°C° 0,1 mm 2 m/S 769 mmHg 97%
    21:00 +8°C° 0,1 mm 2 m/S 769 mmHg 97%
    22:00 +8°C° 0 mm 2 m/S 769 mmHg 97%
    23:00 +8°C° 0 mm 2 m/S 769 mmHg 97%

    21 Dezember, Donnerstag

    Zeit Temperatur Niederschläge Wind Luftdruck Luftfeuchtigkeit
    00:00 +9°C° 0 mm 3 m/S 768 mmHg 97%
    01:00 +9°C° 0 mm 3 m/S 768 mmHg 97%
    02:00 +9°C° 0 mm 3 m/S 768 mmHg 96%
    03:00 +9°C° 0 mm 3 m/S 768 mmHg 96%
    04:00 +9°C° 0 mm 3 m/S 768 mmHg 96%
    05:00 +9°C° 0 mm 3 m/S 768 mmHg 96%
    06:00 +9°C° 0 mm 3 m/S 768 mmHg 95%
    07:00 +8°C° 0 mm 4 m/S 768 mmHg 95%
    08:00 +8°C° 0 mm 4 m/S 768 mmHg 94%
    09:00 +8°C° 0 mm 4 m/S 768 mmHg 94%
    10:00 +8°C° 0 mm 4 m/S 767 mmHg 92%
    11:00 +8°C° 0 mm 4 m/S 767 mmHg 91%
    12:00 +10°C° 0 mm 4 m/S 767 mmHg 90%
    13:00 +8°C° 0,1 mm 4 m/S 767 mmHg 90%
    14:00 +8°C° 0,1 mm 4 m/S 766 mmHg 91%
    15:00 +8°C° 0,1 mm 4 m/S 766 mmHg 92%
    16:00 +8°C° 0 mm 4 m/S 766 mmHg 91%
    17:00 +8°C° 0 mm 4 m/S 766 mmHg 91%
    18:00 +8°C° 0 mm 5 m/S 766 mmHg 91%
    19:00 +8°C° 0,3 mm 5 m/S 766 mmHg 92%
    20:00 +8°C° 0,3 mm 4 m/S 766 mmHg 92%
    21:00 +8°C° 0,3 mm 4 m/S 766 mmHg 93%
    22:00 +8°C° 0,5 mm 4 m/S 766 mmHg 92%
    23:00 +8°C° 0,5 mm 4 m/S 767 mmHg 92%
    Mehr zeigen